User: anonymous   Login
Location: Caribou
(46.8667°N, 68.0167°W)
Time: 17:21:11
(UTC-04:00)
Language:

SL-08 RB Rocket - Orbit

View from above orbital plane
View from above orbital plane
View from above satellite
View from above satellite

Ground track
Ground track

The orbit data is extracted from the following two-line orbital elements,

1 26387U 00033D   17141.78284696 +.00000153 +00000-0 +34734-4 0  9990
2 26387 097.9724 206.7427 0027737 062.6763 005.1505 14.68272185161693
Epoch (UTC): 21 May 2017 18:47:17
Eccentricity: 0.0027737
inclination: 97.9724°
perigee height: 647 km
apogee height: 686 km
right ascension of ascending node: 206.7427°
argument of perigee: 62.6763°
revolutions per day: 14.68272185
mean anomaly at epoch: 5.1505°
orbit number at epoch: 16169

The dashed part of the orbit path shows where the satellite is in the earth's shadow,  

DLR